Location: Fort Worth, Tx
(32.7431°N, 97.3695°W)
Time: 04:49:18
(UTC-04:00)

Vanguard 3 - Pass Details

Date: 01 March 2024
Orbit: 510 x 3234 km, 33.3° (Epoch: 24 April)

Event Time Altitude Azimuth Distance (km) Brightness Sun altitude
Rises 23:55:25 0° 276° (W) 7,020 12.3 -54.6°
Reaches altitude 10° 23:59:57 10° 276° (W) 6,118 11.9 -55.4°
Enters shadow 00:14:16 57° 277° (W) 3,527 10.1 -57.5°
